Change the Weather History Date:

Friday, January 23, 2015

  Actual Average Record
Temperature  
Mean Temperature 73 °F 64 °F  
Max Temperature 81 °F 75 °F 87 °F (1975)
Min Temperature 65 °F 54 °F 33 °F (1985)
Degree Days  
Heating Degree Days 0 3  
Month to date heating degree days 20 88  
Since 1 July heating degree days 109 181  
Cooling Degree Days 8 3  
Month to date cooling degree days 100 68  
Year to date cooling degree days 100 68  
Growing Degree Days 22 (Base 50)    
Moisture  
Dew Point 65 °F    
Average Humidity 78    
Maximum Humidity 93    
Minimum Humidity 58    
Precipitation  
Precipitation 0.00 in 0.07 in 1.84 in (1958)
Month to date precipitation 0.46 1.43  
Year to date precipitation 0.46 1.43  
Sea Level Pressure  
Sea Level Pressure 30.02 in    
Wind  
Wind Speed 10 mph (SSE)    
Max Wind Speed 18 mph    
Max Gust Speed 25 mph    
Visibility 10 miles    
Events      
T = Trace of Precipitation, MM = Missing Value Source: NWS Daily Summary

Daily Weather History Graph

Daily Weather History Graph

Search for Another Location

Airport or City:

Trip Planner

Search our weather history database for the weather conditions in past years. The results will help you decide how hot, cold, wet, or windy it might be!

Date:

Astronomy

Jan. 23, 2015 Rise Set
Actual Time 7:15 AM EST 6:02 PM EST
Civil Twilight 6:51 AM EST 6:27 PM EST
Nautical Twilight 6:23 AM EST 6:55 PM EST
Astronomical Twilight 5:55 AM EST 7:23 PM EST
Moon 9:29 AM EST (1/23) 9:45 PM EST (1/23)
Length of Visible Light 11h 36m
Length of Day
10h 46m
Waxing Crescent, 14% of the Moon is Illuminated
Jan 23
Waxing Crescent
Jan 26
First Quarter
Feb 3
Full
Feb 11
Last Quarter
Feb 18
New

Hourly Weather History & Observations

Time (EST) Temp. Heat Index Dew Point Humidity Pressure Visibility Wind Dir Wind Speed Gust Speed Precip Events Conditions
12:53 AM 66.9 °F - 64.0 °F 90% 30.10 in 10.0 mi SE 5.8 mph - N/A   Clear
1:53 AM 66.0 °F - 64.0 °F 93% 30.09 in 10.0 mi ESE 5.8 mph - N/A   Clear
2:53 AM 66.0 °F - 63.0 °F 90% 30.07 in 10.0 mi ESE 8.1 mph - N/A   Clear
3:53 AM 64.9 °F - 63.0 °F 93% 30.06 in 10.0 mi ESE 5.8 mph - N/A   Clear
4:53 AM 64.9 °F - 63.0 °F 93% 30.05 in 10.0 mi SE 6.9 mph - N/A   Clear
5:53 AM 64.9 °F - 63.0 °F 93% 30.06 in 10.0 mi SE 8.1 mph - N/A   Clear
6:53 AM 66.0 °F - 63.0 °F 90% 30.07 in 10.0 mi SE 6.9 mph - N/A   Clear
7:53 AM 66.9 °F - 64.0 °F 90% 30.08 in 10.0 mi SE 5.8 mph - N/A   Clear
8:53 AM 69.1 °F - 64.0 °F 84% 30.08 in 10.0 mi SE 8.1 mph - N/A   Clear
9:53 AM 73.9 °F - 64.0 °F 71% 30.07 in 10.0 mi SSE 12.7 mph 19.6 mph N/A   Clear
10:53 AM 77.0 °F - 64.9 °F 66% 30.04 in 10.0 mi South 12.7 mph 25.3 mph N/A   Clear
11:53 AM 78.1 °F - 64.9 °F 64% 30.01 in 10.0 mi SSE 15.0 mph 23.0 mph N/A   Partly Cloudy
12:53 PM 80.1 °F 81.9 °F 64.9 °F 60% 30.00 in 10.0 mi South 16.1 mph 24.2 mph N/A   Clear
1:53 PM 80.1 °F 81.7 °F 64.0 °F 58% 29.99 in 10.0 mi South 15.0 mph 23.0 mph N/A   Mostly Cloudy
2:53 PM 81.0 °F 82.7 °F 64.9 °F 58% 29.98 in 10.0 mi SSW 11.5 mph 19.6 mph N/A   Mostly Cloudy
3:53 PM 79.0 °F - 64.9 °F 62% 29.96 in 10.0 mi South 16.1 mph 24.2 mph N/A   Clear
4:53 PM 78.1 °F - 64.9 °F 64% 29.98 in 10.0 mi South 11.5 mph 20.7 mph N/A   Clear
5:53 PM 75.9 °F - 66.0 °F 71% 29.98 in 10.0 mi South 9.2 mph 17.3 mph N/A   Partly Cloudy
6:53 PM 73.9 °F - 66.0 °F 76% 29.98 in 10.0 mi South 8.1 mph - N/A   Partly Cloudy
7:53 PM 73.0 °F - 66.0 °F 79% 29.98 in 10.0 mi South 9.2 mph - N/A   Clear
8:53 PM 73.0 °F - 66.0 °F 79% 29.98 in 10.0 mi South 10.4 mph - N/A   Clear
9:53 PM 72.0 °F - 66.9 °F 84% 29.97 in 10.0 mi SSE 10.4 mph - N/A   Overcast
10:53 PM 71.1 °F - 66.9 °F 87% 29.96 in 10.0 mi SSE 11.5 mph - N/A   Partly Cloudy
11:53 PM 71.1 °F - 66.9 °F 87% 29.94 in 10.0 mi SSE 11.5 mph - N/A   Partly Cloudy